Location: Koussan�
(15.2012°N, 12.5548°W)
Time: 12:35:20
(UTC+00:00)

Aureole 1 Rocket - Pass Details

Date: 20 October 2020
Orbit: 379 x 1377 km, 73.9° (Epoch: 26 November)

Event Time Altitude Azimuth Distance (km) Brightness Sun altitude
Rises 18:52:03 0° 5° (N) 2,257 5.8 -6.9°
Reaches altitude 10° 18:54:11 10° 20° (NNE) 1,445 4.7 -7.4°
Maximum altitude 18:56:46 24° 77° (ENE) 937 3.4 -8.0°
Drops below altitude 10° 18:59:41 10° 133° (SE) 1,651 4.9 -8.7°
Sets 19:02:18 0° 147° (SSE) 2,679 6.1 -9.3°
